UPS275 LOWW-EDDK

Flight info

Callsign UPS275
Flight time N/A
Altitude 36000
Route BUWUT2A/11 BUWUT DCT DITIS DCT RAPET T843 VELIS DCT MASEK T841 ERNEP ERNEP1B
Aircraft B77L/H-SDE1E2E3FGHIJ2J3J4J5M1RWXY/LB1D1

Departure

Time 2026-05-04 20:06
Airport Vienna International Airport (LOWW)

Arrival

Time N/A
Airport Cologne Bonn Airport (EDDK)
Time Latitude Longitude Altitude Speed Heading
2026-05-04 19:03 48.12128 16.55192 614 ft 0 kts 295°
2026-05-04 19:16 48.12096 16.55153 614 ft 0 kts 295°
2026-05-04 19:17 48.12117 16.55053 614 ft 0 kts 26°
2026-05-04 19:56 48.12108 16.55046 628 ft 4 kts 26°
2026-05-04 19:56 48.12084 16.55028 624 ft 4 kts 26°
2026-05-04 19:57 48.12060 16.55011 624 ft 2 kts 26°
2026-05-04 19:57 48.12039 16.55000 614 ft 4 kts 346°
2026-05-04 19:57 48.12022 16.55022 616 ft 4 kts 293°
2026-05-04 19:57 48.12017 16.55041 616 ft 1 kts 296°
2026-05-04 20:00 48.12024 16.55018 616 ft 7 kts 296°
2026-05-04 20:00 48.12058 16.54912 627 ft 13 kts 296°
2026-05-04 20:01 48.12098 16.54790 614 ft 13 kts 296°
2026-05-04 20:01 48.12135 16.54666 620 ft 13 kts 282°
2026-05-04 20:01 48.12108 16.54540 617 ft 13 kts 274°
2026-05-04 20:01 48.12141 16.54411 624 ft 13 kts 296°
2026-05-04 20:02 48.12182 16.54287 622 ft 13 kts 296°
2026-05-04 20:02 48.12222 16.54162 628 ft 13 kts 296°
2026-05-04 20:02 48.12263 16.54038 626 ft 13 kts 296°
2026-05-04 20:02 48.12304 16.53914 616 ft 13 kts 296°
2026-05-04 20:03 48.12344 16.53790 625 ft 13 kts 296°
2026-05-04 20:03 48.12385 16.53666 624 ft 13 kts 296°
2026-05-04 20:03 48.12425 16.53541 613 ft 13 kts 296°
2026-05-04 20:03 48.12431 16.53498 622 ft 3 kts 258°
2026-05-04 20:04 48.12419 16.53469 613 ft 4 kts 232°
2026-05-04 20:04 48.12387 16.53437 613 ft 7 kts 208°
2026-05-04 20:04 48.12329 16.53393 625 ft 11 kts 207°
2026-05-04 20:04 48.12260 16.53405 626 ft 12 kts 121°
2026-05-04 20:05 48.12195 16.53602 623 ft 36 kts 116°
2026-05-04 20:05 48.11985 16.54248 626 ft 103 kts 116°
2026-05-04 20:05 48.11579 16.55492 623 ft 160 kts 116°
2026-05-04 20:05 48.11057 16.57084 955 ft 170 kts 113°
2026-05-04 20:06 48.10547 16.58700 1544 ft 172 kts 117°
2026-05-04 20:06 48.10016 16.60349 2041 ft 184 kts 116°
2026-05-04 20:06 48.09793 16.62325 2196 ft 209 kts 82°
2026-05-04 20:06 48.10373 16.64482 2354 ft 240 kts 64°
2026-05-04 20:07 48.11238 16.66755 2729 ft 260 kts 65°
2026-05-04 20:07 48.12155 16.69177 3305 ft 273 kts 65°
2026-05-04 20:07 48.13097 16.71658 3985 ft 281 kts 65°
2026-05-04 20:07 48.14064 16.74220 4823 ft 284 kts 64°
2026-05-04 20:08 48.15053 16.76797 5575 ft 287 kts 60°
2026-05-04 20:08 48.16497 16.78923 6133 ft 300 kts 28°
2026-05-04 20:08 48.18499 16.79679 6943 ft 298 kts 356°
2026-05-04 20:08 48.19851 16.79400 7450 ft 294 kts 345°
2026-05-04 20:09 48.21866 16.78685 8095 ft 301 kts 344°
2026-05-04 20:09 48.23898 16.77948 8933 ft 300 kts 344°
2026-05-04 20:09 48.25956 16.77208 9724 ft 301 kts 344°
2026-05-04 20:09 48.27907 16.76224 10265 ft 303 kts 325°
2026-05-04 20:10 48.29439 16.74035 10497 ft 313 kts 302°
2026-05-04 20:10 48.30671 16.71203 10693 ft 336 kts 300°
2026-05-04 20:10 48.31990 16.68143 10893 ft 361 kts 300°
2026-05-04 20:10 48.33409 16.64927 11329 ft 376 kts 301°
2026-05-04 20:11 48.34900 16.61627 12073 ft 384 kts 302°
2026-05-04 20:11 48.36427 16.58308 12962 ft 388 kts 302°
2026-05-04 20:11 48.37976 16.54963 13862 ft 391 kts 302°
2026-05-04 20:11 48.39545 16.51595 14734 ft 395 kts 303°
2026-05-04 20:12 48.41127 16.48203 15539 ft 398 kts 303°
2026-05-04 20:12 48.42729 16.44762 16349 ft 403 kts 303°
2026-05-04 20:12 48.44327 16.41333 17153 ft 406 kts 303°
2026-05-04 20:12 48.45953 16.37834 17903 ft 409 kts 303°
2026-05-04 20:13 48.47592 16.34303 18656 ft 413 kts 302°
2026-05-04 20:13 48.49117 16.30620 19351 ft 415 kts 296°
2026-05-04 20:13 48.50402 16.26701 20007 ft 418 kts 294°
2026-05-04 20:13 48.51654 16.22712 20660 ft 423 kts 294°
2026-05-04 20:14 48.52913 16.18682 21307 ft 427 kts 294°
2026-05-04 20:14 48.54190 16.14617 21932 ft 430 kts 294°
2026-05-04 20:14 48.55486 16.10522 22539 ft 434 kts 295°